Location: Ahstedt
(52.2048°N, 10.1060°E)
Time: 21:32:28
(UTC+00:00)

Cosmos 2082 Rocket - Pass Details

Date: 15 April 2026
Orbit: 831 x 853 km, 71.0° (Epoch: 19 May)

Event Time Altitude Azimuth Distance (km) Brightness Sun altitude
Exits shadow 02:42:10 21° 231° (SW) 1,807 3.3 -14.5°
Maximum altitude 02:45:56 61° 306° (NW) 964 2.4 -14.0°
Drops below altitude 10° 02:51:38 10° 27° (NNE) 2,495 5.7 -13.3°
Sets 02:54:08 0° 31° (NNE) 3,434 6.7 -13.0°
